Regional Weather Roundup
Issued by NWS

Home | Current Version | Previous Version | Graphics & Text | Print | Product List | Glossary On
Versions: 1 2 3 4 5 6 7 8 9 10 11 12 13 14 15 16 17 18 19 20 21 22 23 24 25 26 27 28 29 30 31 32 33 34 35 36 37 38 39 40 41 42 43 44 45 46 47 48 49 50
000
ASUS43 KLOT 021713
RWRIL

ILLINOIS REGIONAL WEATHER ROUNDUP
NATIONAL WEATHER SERVICE CHICAGO/ROMEOVILLE IL
1200 PM CDT THU JUL 02 2015

NOTE: "FAIR" INDICATES FEW OR NO CLOUDS BELOW 12,000 FEET WITH NO
SIGNIFICANT WEATHER AND/OR OBSTRUCTIONS TO VISIBILITY.

* THESE STATIONS ARE NOT UNDER NWS QUALITY CONTROL. THEY ALSO MAY NOT
  REPORT WEATHER SUCH AS PRECIPITATION OR FOG.

ILZ001-002-007-009-015-016-024-021800-
NORTHWEST ILLINOIS

CITY           SKY/WX    TMP DP  RH WIND       PRES   REMARKS
MOLINE         PTSUNNY   69  55  60 E10       29.99S
STERLING*      MOSUNNY   64  55  72 E12       30.01F
$$

ILZ003-004-008-010-011-017-018-021800-
NORTH CENTRAL ILLINOIS

CITY           SKY/WX    TMP DP  RH WIND       PRES   REMARKS
ROCKFORD       PTSUNNY   68  52  56 NE13      30.03F
$$

ILZ005-006-012>014-019>023-021800-
NORTHEAST ILLINOIS

CITY           SKY/WX    TMP DP  RH WIND       PRES   REMARKS
CHICAGO-OHARE  MOSUNNY   66  54  65 NE15      30.01S
CHICAGO-MIDWAY MOSUNNY   70  57  63 NE13      30.00S
AURORA         PTSUNNY   66  54  65 NE14      30.01S
JOLIET*        PTSUNNY   70  59  68 NE10      29.99S
WAUKEGAN       SUNNY     62  51  67 N9        30.03S
DUPAGE AIRPORT PTSUNNY   66  55  67 NE15      30.01S
WHEELING       MOSUNNY   64  52  64 NE13      30.04R
ROMEOVILLE*    PTSUNNY   68  55  64 NE15      30.00S
NORTHERLY ISL    N/A     62  55  77 MISG        N/A
$$

LMZ740>746-021800-
SOUTHERN LAKE MICHIGAN

STATION/POSITION SKY/WX   TEMP    WIND        PRES    VSBY  WAVE
                          AIR SEA DIR/SP/G                  HT/PER
                          (F)     (DEG/KT/KT) (MB)    (MI)  (FT/S)
HARRISON CRIB              57      20/ 17/ 19   N/A
BURNHAM HARBOR             62     360/  9/ 13   N/A
CALUMET HARBOR             61                   N/A
BURNS HARBOR               61      20/ 12/ 14 1016.3S
MICHIGAN CITY              60     360/ 15/ 16   N/A
MICHIGAN CITY 6N           62 64   20/ 12/ 16   N/A           3/ 4
ST. JOSEPH                 60 63                N/A           3/ 3
$$

ILZ025>027-034>036-040-047-049-050-058-095>099-021800-
WEST-CENTRAL ILLINOIS

CITY           SKY/WX    TMP DP  RH WIND       PRES   REMARKS
QUINCY         PTSUNNY   71  56  58 NE12      29.95F
$$

ILZ028>032-037-038-041>044-048-051>054-059>061-021800-
CENTRAL ILLINOIS

CITY           SKY/WX    TMP DP  RH WIND       PRES   REMARKS
BLOOMINGTON    MOSUNNY   71  59  66 NE16      29.97S
DECATUR        PTSUNNY   72  60  66 N12       29.93F
PEORIA         PTSUNNY   69  56  62 NE9       29.98F
SPRINGFIELD    PTSUNNY   72  59  63 NE10      29.95S
TAYLORVILLE    NOT AVBL
$$

ILZ033-039-045-046-055>057-062-063-021800-
EAST-CENTRAL ILLINOIS

CITY           SKY/WX    TMP DP  RH WIND       PRES   REMARKS
CHAMPAIGN      MOSUNNY   70  58  65 NE8       29.94S
MATTOON        PTSUNNY   71  61  70 NE10      29.91S
$$

ILZ079-100>102-021800-
SOUTHWEST ILLINOIS

CITY           SKY/WX    TMP DP  RH WIND       PRES   REMARKS
ALTON          CLOUDY    68  66  94 N9        29.93R
BELLEVILLE     PTSUNNY   67  66  99 VRB3      29.90S
CAHOKIA*       CLOUDY    69  62  78 N8        29.91R
$$

ILZ064>066-069>071-074>076-080>082-084>086-088>090-092>094-021800-
SOUTH-CENTRAL ILLINOIS

CITY           SKY/WX    TMP DP  RH WIND       PRES   REMARKS
CARBONDALE     CLOUDY    80  69  69 W9        29.86R HX  83
MT. VERNON     CLOUDY    66  61  82 N6        29.90R
CENTRALIA*     CLOUDY    64  62  91 NE3       29.90S FOG
$$

ILZ067-068-072-073-078-083-087-091-021800-
SOUTHEAST ILLINOIS

CITY           SKY/WX    TMP DP  RH WIND       PRES   REMARKS
LAWRENCEVILLE  CLOUDY    71  66  84 N6        29.90R
$$

ABBREVIATIONS USED IN REMARKS
   TC - TEMPERATURE IN CELSIUS
  WCI - WIND CHILL INDEX
   HX - HEAT INDEX
  VSB - VISIBILITY
$$




USA.gov is the U.S. government's official web portal to all federal, state and local government web resources and services.